When you browse on this site, cookies collect data to enhance your experience and personalize the content and advertising you see.
Visit our Privacy Policy to learn more. By continuing to use the site, you agree to this use of cookies and data.
  • In Lithuania
  • List of Countries
  • For 7 days
  • Water Temperature
  • Weather Map
  • Weather Widgets
  • user-avatar
    Login

    Hourly Weather Dębica

    Today, 22 September, Sunday

    Time Temperature Precipitation Wind Pressure Humidity
    00:00 +9°C° 0 mm 2 mps 748 mmHg 78%
    01:00 +9°C° 0 mm 2 mps 748 mmHg 78%
    02:00 +9°C° 0 mm 2 mps 747 mmHg 78%
    03:00 +8°C° 0 mm 2 mps 747 mmHg 79%
    04:00 +8°C° 0 mm 2 mps 747 mmHg 79%
    05:00 +9°C° 0 mm 2 mps 747 mmHg 76%
    06:00 +9°C° 0 mm 2 mps 747 mmHg 74%
    07:00 +10°C° 0 mm 2 mps 747 mmHg 71%
    08:00 +13°C° 0 mm 2 mps 747 mmHg 65%
    09:00 +15°C° 0 mm 2 mps 746 mmHg 59%
    10:00 +18°C° 0 mm 2 mps 746 mmHg 53%
    11:00 +19°C° 0 mm 2 mps 746 mmHg 51%
    12:00 +20°C° 0 mm 2 mps 745 mmHg 49%
    13:00 +21°C° 0 mm 2 mps 745 mmHg 46%
    14:00 +20°C° 0 mm 2 mps 745 mmHg 49%
    15:00 +20°C° 0 mm 2 mps 744 mmHg 52%
    16:00 +20°C° 0 mm 2 mps 744 mmHg 55%
    17:00 +18°C° 0 mm 2 mps 744 mmHg 58%
    18:00 +16°C° 0 mm 2 mps 744 mmHg 61%
    19:00 +14°C° 0 mm 2 mps 744 mmHg 65%
    20:00 +13°C° 0 mm 2 mps 744 mmHg 65%
    21:00 +12°C° 0 mm 2 mps 744 mmHg 65%
    22:00 +12°C° 0 mm 2 mps 744 mmHg 65%
    23:00 +11°C° 0 mm 1 mps 744 mmHg 66%

    Tomorrow, 23 September, Monday

    Time Temperature Precipitation Wind Pressure Humidity
    00:00 +11°C° 0 mm 1 mps 743 mmHg 67%
    01:00 +10°C° 0 mm 1 mps 743 mmHg 69%
    02:00 +10°C° 0 mm 1 mps 743 mmHg 70%
    03:00 +10°C° 0 mm 1 mps 743 mmHg 71%
    04:00 +9°C° 0 mm 1 mps 743 mmHg 72%
    05:00 +10°C° 0 mm 1 mps 743 mmHg 70%
    06:00 +11°C° 0 mm 1 mps 743 mmHg 68%
    07:00 +12°C° 0 mm 2 mps 743 mmHg 66%
    08:00 +14°C° 0 mm 2 mps 743 mmHg 59%
    09:00 +17°C° 0 mm 2 mps 743 mmHg 53%
    10:00 +19°C° 0 mm 3 mps 743 mmHg 46%
    11:00 +20°C° 0 mm 3 mps 743 mmHg 45%
    12:00 +21°C° 0 mm 3 mps 742 mmHg 43%
    13:00 +22°C° 0 mm 3 mps 742 mmHg 41%
    14:00 +22°C° 0 mm 3 mps 742 mmHg 46%
    15:00 +21°C° 0 mm 3 mps 742 mmHg 50%
    16:00 +21°C° 0 mm 2 mps 742 mmHg 54%
    17:00 +19°C° 0 mm 2 mps 742 mmHg 60%
    18:00 +17°C° 0 mm 2 mps 742 mmHg 65%
    19:00 +15°C° 0 mm 2 mps 742 mmHg 71%
    20:00 +14°C° 0 mm 1 mps 742 mmHg 73%
    21:00 +14°C° 0 mm 1 mps 742 mmHg 75%
    22:00 +13°C° 0 mm 1 mps 742 mmHg 78%
    23:00 +13°C° 0 mm 1 mps 742 mmHg 80%

    Day after tomorrow, 24 September, Tuesday

    Time Temperature Precipitation Wind Pressure Humidity
    00:00 +12°C° 0 mm 1 mps 742 mmHg 83%
    01:00 +12°C° 0 mm 1 mps 742 mmHg 86%
    02:00 +11°C° 0 mm 1 mps 742 mmHg 86%
    03:00 +11°C° 0 mm 1 mps 742 mmHg 87%
    04:00 +11°C° 0 mm 1 mps 741 mmHg 87%
    05:00 +11°C° 0 mm 1 mps 741 mmHg 84%
    06:00 +11°C° 0 mm 0 mps 741 mmHg 81%
    07:00 +12°C° 0 mm 0 mps 741 mmHg 78%
    08:00 +15°C° 0 mm 1 mps 741 mmHg 71%
    09:00 +18°C° 0 mm 1 mps 741 mmHg 64%
    10:00 +20°C° 0 mm 1 mps 741 mmHg 57%
    11:00 +20°C° 0 mm 2 mps 741 mmHg 55%
    12:00 +21°C° 0 mm 2 mps 741 mmHg 52%
    13:00 +22°C° 0 mm 3 mps 740 mmHg 49%
    14:00 +23°C° 0 mm 2 mps 740 mmHg 52%
    15:00 +21°C° 0 mm 2 mps 740 mmHg 55%
    16:00 +21°C° 0 mm 2 mps 739 mmHg 57%
    17:00 +19°C° 0 mm 2 mps 739 mmHg 63%
    18:00 +17°C° 0 mm 2 mps 739 mmHg 69%
    19:00 +16°C° 0 mm 2 mps 739 mmHg 74%
    20:00 +15°C° 0 mm 2 mps 739 mmHg 74%
    21:00 +15°C° 0 mm 2 mps 739 mmHg 75%
    22:00 +15°C° 0 mm 2 mps 739 mmHg 75%
    23:00 +14°C° 0 mm 1 mps 739 mmHg 75%

    25 September, Wednesday

    Time Temperature Precipitation Wind Pressure Humidity
    00:00 +14°C° 0 mm 1 mps 738 mmHg 74%
    01:00 +14°C° 0 mm 1 mps 738 mmHg 74%
    02:00 +14°C° 0 mm 1 mps 738 mmHg 74%
    03:00 +14°C° 0 mm 1 mps 738 mmHg 73%
    04:00 +15°C° 0 mm 1 mps 738 mmHg 73%
    05:00 +15°C° 0 mm 2 mps 738 mmHg 73%
    06:00 +15°C° 0 mm 2 mps 737 mmHg 72%
    07:00 +15°C° 0 mm 2 mps 737 mmHg 72%
    08:00 +16°C° 0 mm 2 mps 737 mmHg 70%
    09:00 +17°C° 0 mm 2 mps 738 mmHg 69%
    10:00 +18°C° 0 mm 2 mps 738 mmHg 68%
    11:00 +19°C° 0.3 mm 2 mps 738 mmHg 65%
    12:00 +20°C° 0.3 mm 3 mps 737 mmHg 63%
    13:00 +21°C° 0.3 mm 3 mps 737 mmHg 61%
    14:00 +20°C° 0.5 mm 3 mps 737 mmHg 64%
    15:00 +19°C° 0.5 mm 3 mps 737 mmHg 67%
    16:00 +19°C° 0.5 mm 3 mps 737 mmHg 71%
    17:00 +18°C° 0.2 mm 3 mps 737 mmHg 75%
    18:00 +17°C° 0.2 mm 3 mps 737 mmHg 79%
    19:00 +16°C° 0.2 mm 3 mps 737 mmHg 82%
    20:00 +16°C° 0.1 mm 3 mps 738 mmHg 82%
    21:00 +16°C° 0.1 mm 3 mps 738 mmHg 82%
    22:00 +16°C° 0.1 mm 3 mps 738 mmHg 82%
    23:00 +14°C° 0 mm 3 mps 738 mmHg 82%

    26 September, Thursday

    Time Temperature Precipitation Wind Pressure Humidity
    00:00 +14°C° 0 mm 4 mps 738 mmHg 82%
    01:00 +13°C° 0 mm 4 mps 738 mmHg 82%
    02:00 +13°C° 0 mm 4 mps 739 mmHg 84%
    03:00 +12°C° 0 mm 3 mps 739 mmHg 86%
    04:00 +11°C° 0 mm 3 mps 739 mmHg 88%
    05:00 +11°C° 0 mm 3 mps 739 mmHg 85%
    06:00 +12°C° 0 mm 4 mps 739 mmHg 83%
    07:00 +12°C° 0 mm 4 mps 740 mmHg 81%
    08:00 +13°C° 0 mm 4 mps 740 mmHg 74%
    09:00 +15°C° 0 mm 5 mps 740 mmHg 68%
    10:00 +16°C° 0 mm 6 mps 741 mmHg 61%
    11:00 +17°C° 0 mm 6 mps 741 mmHg 59%
    12:00 +19°C° 0 mm 5 mps 740 mmHg 57%
    13:00 +19°C° 0 mm 5 mps 740 mmHg 55%
    14:00 +19°C° 0.1 mm 5 mps 740 mmHg 57%
    15:00 +17°C° 0.1 mm 5 mps 740 mmHg 60%
    16:00 +17°C° 0.1 mm 5 mps 741 mmHg 62%
    17:00 +15°C° 0 mm 5 mps 741 mmHg 68%
    18:00 +14°C° 0 mm 4 mps 741 mmHg 74%
    19:00 +13°C° 0 mm 3 mps 741 mmHg 79%
    20:00 +13°C° 0 mm 3 mps 742 mmHg 79%
    21:00 +14°C° 0 mm 2 mps 742 mmHg 79%
    22:00 +14°C° 0 mm 2 mps 742 mmHg 79%
    23:00 +14°C° 0 mm 2 mps 742 mmHg 80%

    27 September, Friday

    Time Temperature Precipitation Wind Pressure Humidity
    00:00 +14°C° 0 mm 2 mps 742 mmHg 80%
    01:00 +13°C° 0 mm 2 mps 742 mmHg 81%
    02:00 +13°C° 0 mm 2 mps 742 mmHg 82%
    03:00 +13°C° 0 mm 2 mps 742 mmHg 83%
    04:00 +12°C° 0 mm 2 mps 742 mmHg 84%
    05:00 +13°C° 0 mm 2 mps 742 mmHg 81%
    06:00 +14°C° 0 mm 2 mps 742 mmHg 78%
    07:00 +15°C° 0 mm 2 mps 742 mmHg 75%
    08:00 +15°C° 0.1 mm 2 mps 742 mmHg 75%
    09:00 +15°C° 0.1 mm 2 mps 742 mmHg 76%
    10:00 +15°C° 0.1 mm 2 mps 743 mmHg 77%
    11:00 +16°C° 0 mm 2 mps 742 mmHg 76%
    12:00 +16°C° 0 mm 2 mps 742 mmHg 75%
    13:00 +16°C° 0 mm 2 mps 742 mmHg 74%
    14:00 +17°C° 0 mm 2 mps 742 mmHg 73%
    15:00 +17°C° 0 mm 2 mps 742 mmHg 73%
    16:00 +18°C° 0 mm 1 mps 742 mmHg 72%
    17:00 +16°C° 0 mm 1 mps 742 mmHg 76%
    18:00 +15°C° 0 mm 1 mps 742 mmHg 80%
    19:00 +14°C° 0 mm 1 mps 742 mmHg 83%
    20:00 +14°C° 0 mm 1 mps 742 mmHg 84%
    21:00 +14°C° 0 mm 2 mps 742 mmHg 84%
    22:00 +13°C° 0 mm 2 mps 742 mmHg 85%
    23:00 +13°C° 0 mm 2 mps 742 mmHg 85%
    Show more